Weather History for Appleton, MN

Change the Weather History Date:

Monday, August 25, 2014

  Actual Average Record
Temperature  
Mean Temperature 65 °F -  
Max Temperature 73 °F 77 °F 96 °F (2013)
Min Temperature 55 °F 55 °F 46 °F (2008)
Growing Degree Days 15 (Base 50)    
Moisture  
Dew Point 53 °F    
Average Humidity 67    
Maximum Humidity 88    
Minimum Humidity 47    
Precipitation  
Precipitation 0.00 in - - ()
Sea Level Pressure  
Sea Level Pressure 29.98 in    
Wind  
Wind Speed 9 mph (West)    
Max Wind Speed 18 mph    
Max Gust Speed 24 mph    
Visibility 10 miles    
Events      
Averages and records for this station are not official NWS values.
T = Trace of Precipitation, MM = Missing Value Source: NWS Daily Summary

Daily Weather History Graph

Daily Weather History Graph

Search for Another Location

Airport:

Trip Planner

Search our weather history database for the weather conditions in past years. The results will help you decide how hot, cold, wet, or windy it might be!

Date:

Astronomy

Aug. 25, 2014 Rise Set
Actual Time 6:37 AM CDT 8:13 PM CDT
Civil Twilight 6:06 AM CDT 8:44 PM CDT
Nautical Twilight 5:28 AM CDT 9:22 PM CDT
Astronomical Twilight 4:47 AM CDT 10:02 PM CDT
Moon 6:46 AM CDT (8/25) 8:00 PM CDT (8/25)
Length of Visible Light 14h 38m
Length of Day
13h 36m
New Moon, 0% of the Moon is Illuminated
Aug 25
New Moon
Sep 2
First Quarter
Sep 8
Full
Sep 15
Last Quarter
Sep 24
New

Hourly Weather History & Observations

Time (CDT) Temp. Dew Point Humidity Pressure Visibility Wind Dir Wind Speed Gust Speed Precip Events Conditions
12:15 AM 66.2 °F 60.8 °F 83% 29.84 in 10.0 mi South 3.5 mph - N/A   Clear
12:34 AM 66.2 °F 60.8 °F 83% 29.84 in 10.0 mi SSW 4.6 mph - N/A   Clear
12:54 AM 68.0 °F 60.8 °F 78% 29.85 in 10.0 mi South 5.8 mph - N/A   Clear
1:14 AM 68.0 °F 60.8 °F 78% 29.85 in 10.0 mi SSW 6.9 mph - N/A   Clear
1:34 AM 66.2 °F 60.8 °F 83% 29.86 in 10.0 mi West 10.4 mph - N/A   Clear
1:55 AM 64.4 °F 60.8 °F 88% 29.87 in 10.0 mi WSW 3.5 mph - N/A   Clear
2:14 AM 64.4 °F 60.8 °F 88% 29.87 in 10.0 mi West 5.8 mph - N/A   Clear
2:34 AM 64.4 °F 60.8 °F 88% 29.88 in 10.0 mi WSW 6.9 mph - N/A   Clear
2:54 AM 62.6 °F 59.0 °F 88% 29.88 in 10.0 mi West 4.6 mph - N/A   Clear
3:14 AM 62.6 °F 57.2 °F 82% 29.89 in 10.0 mi West 3.5 mph - N/A   Clear
3:34 AM 60.8 °F 57.2 °F 88% 29.90 in 10.0 mi West 5.8 mph - N/A   Clear
4:14 AM 60.8 °F 51.8 °F 72% 29.89 in 10.0 mi West 8.1 mph - N/A   Clear
4:34 AM 59.0 °F 51.8 °F 77% 29.89 in 10.0 mi West 8.1 mph - N/A   Clear
5:14 AM 57.2 °F 51.8 °F 82% 29.90 in 10.0 mi WSW 4.6 mph - N/A   Clear
5:34 AM 57.2 °F 51.8 °F 82% 29.90 in 10.0 mi West 8.1 mph - N/A   Clear
5:54 AM 57.2 °F 51.8 °F 82% 29.91 in 10.0 mi West 8.1 mph - N/A   Clear
6:14 AM 57.2 °F 51.8 °F 82% 29.91 in 10.0 mi West 9.2 mph - N/A   Clear
6:34 AM 57.2 °F 51.8 °F 82% 29.92 in 10.0 mi West 8.1 mph - N/A   Clear
7:14 AM 57.2 °F 51.8 °F 82% 29.95 in 10.0 mi WSW 5.8 mph - N/A   Clear
7:34 AM 57.2 °F 51.8 °F 82% 29.96 in 10.0 mi WSW 6.9 mph - N/A   Clear
7:54 AM 59.0 °F 51.8 °F 77% 29.96 in 10.0 mi West 8.1 mph - N/A   Clear
8:14 AM 59.0 °F 51.8 °F 77% 29.96 in 10.0 mi West 9.2 mph - N/A   Clear
8:34 AM 60.8 °F 51.8 °F 72% 29.97 in 10.0 mi West 10.4 mph - N/A   Clear
8:54 AM 60.8 °F 51.8 °F 72% 29.97 in 10.0 mi West 9.2 mph - N/A   Clear
9:34 AM 62.6 °F 50.0 °F 63% 29.99 in 10.0 mi West 13.8 mph - N/A   Clear
9:54 AM 62.6 °F 51.8 °F 68% 29.99 in 10.0 mi West 12.7 mph - N/A   Clear
10:15 AM 64.4 °F 50.0 °F 59% 29.98 in 10.0 mi West 17.3 mph 23.0 mph N/A   Clear
10:35 AM 64.4 °F 51.8 °F 64% 29.99 in 10.0 mi West 13.8 mph - N/A   Clear
10:54 AM 64.4 °F 50.0 °F 59% 29.99 in 10.0 mi West 18.4 mph 23.0 mph N/A   Clear
11:14 AM 66.2 °F 51.8 °F 60% 30.00 in 10.0 mi West 13.8 mph 23.0 mph N/A   Clear
11:35 AM 66.2 °F 51.8 °F 60% 30.00 in 10.0 mi West 12.7 mph 20.7 mph N/A   Clear
11:55 AM 68.0 °F 51.8 °F 56% 30.00 in 10.0 mi WNW 16.1 mph 24.2 mph N/A   Clear
12:14 PM 69.8 °F 51.8 °F 53% 30.00 in 10.0 mi West 18.4 mph - N/A   Clear
12:35 PM 69.8 °F 51.8 °F 53% 30.00 in 10.0 mi WNW 16.1 mph 20.7 mph N/A   Clear
12:54 PM 69.8 °F 51.8 °F 53% 30.00 in 10.0 mi West 12.7 mph 24.2 mph N/A   Clear
1:14 PM 71.6 °F 51.8 °F 50% 30.00 in 10.0 mi West 13.8 mph 21.9 mph N/A   Clear
1:35 PM 71.6 °F 51.8 °F 50% 29.99 in 10.0 mi WNW 13.8 mph 18.4 mph N/A   Clear
1:54 PM 71.6 °F 51.8 °F 50% 29.99 in 10.0 mi West 12.7 mph - N/A   Clear
2:15 PM 71.6 °F 51.8 °F 50% 29.99 in 10.0 mi WNW 15.0 mph 20.7 mph N/A   Clear
2:34 PM 71.6 °F 53.6 °F 53% 29.99 in 10.0 mi West 12.7 mph 19.6 mph N/A   Clear
2:55 PM 73.4 °F 51.8 °F 47% 29.99 in 10.0 mi West 16.1 mph - N/A   Clear
3:14 PM 71.6 °F 53.6 °F 53% 29.99 in 10.0 mi WNW 15.0 mph 20.7 mph N/A   Clear
3:34 PM 73.4 °F 51.8 °F 47% 29.99 in 10.0 mi West 16.1 mph - N/A   Clear
3:55 PM 71.6 °F 51.8 °F 50% 29.99 in 10.0 mi WNW 12.7 mph - N/A   Scattered Clouds
4:15 PM 73.4 °F 53.6 °F 50% 29.99 in 10.0 mi West 13.8 mph 20.7 mph N/A   Scattered Clouds
4:34 PM 73.4 °F 51.8 °F 47% 30.00 in 10.0 mi West 11.5 mph 19.6 mph N/A   Clear
4:54 PM 73.4 °F 53.6 °F 50% 30.01 in 10.0 mi West 13.8 mph 19.6 mph N/A   Scattered Clouds
5:14 PM 71.6 °F 51.8 °F 50% 29.99 in 10.0 mi WNW 15.0 mph - N/A   Clear
5:34 PM 71.6 °F 51.8 °F 50% 29.99 in 10.0 mi WNW 12.7 mph 20.7 mph N/A   Clear
5:54 PM 71.6 °F 53.6 °F 53% 30.00 in 10.0 mi WNW 11.5 mph 18.4 mph N/A   Clear
6:14 PM 71.6 °F 53.6 °F 53% 30.02 in 10.0 mi WNW 13.8 mph - N/A   Clear
6:34 PM 71.6 °F 51.8 °F 50% 30.02 in 10.0 mi WNW 12.7 mph - N/A   Clear
6:54 PM 69.8 °F 53.6 °F 56% 30.03 in 10.0 mi WNW 9.2 mph - N/A   Clear
7:15 PM 68.0 °F 53.6 °F 60% 30.03 in 10.0 mi NW 8.1 mph - N/A   Clear
7:34 PM 66.2 °F 53.6 °F 64% 30.03 in 10.0 mi NW 8.1 mph - N/A   Scattered Clouds
7:54 PM 66.2 °F 53.6 °F 64% 30.04 in 10.0 mi NW 8.1 mph - N/A   Scattered Clouds
8:14 PM 64.4 °F 53.6 °F 68% 30.04 in 10.0 mi NW 6.9 mph - N/A   Mostly Cloudy
8:35 PM 62.6 °F 53.6 °F 72% 30.05 in 10.0 mi NW 5.8 mph - N/A   Mostly Cloudy
8:55 PM 62.6 °F 53.6 °F 72% 30.06 in 10.0 mi NNW 6.9 mph - N/A   Mostly Cloudy
9:14 PM 62.6 °F 53.6 °F 72% 30.08 in 10.0 mi NNW 6.9 mph - N/A   Mostly Cloudy
9:35 PM 62.6 °F 53.6 °F 72% 30.08 in 10.0 mi NNW 8.1 mph - N/A   Overcast
10:15 PM 60.8 °F 51.8 °F 72% 30.10 in 10.0 mi NW 8.1 mph - N/A   Clear
10:34 PM 59.0 °F 50.0 °F 72% 30.11 in 10.0 mi NNW 5.8 mph - N/A   Clear
10:54 PM 57.2 °F 51.8 °F 82% 30.11 in 10.0 mi NNW 6.9 mph - N/A   Clear
11:15 PM 57.2 °F 51.8 °F 82% 30.12 in 10.0 mi NW 5.8 mph - N/A   Clear
11:34 PM 57.2 °F 50.0 °F 77% 30.12 in 10.0 mi NNW 5.8 mph - N/A   Clear
11:54 PM 55.4 °F 50.0 °F 82% 30.13 in 10.0 mi NW 4.6 mph - N/A   Clear